ASIASAT 7

Last updated on Sun Apr 05 2026 00:02:50 GMT+0000 (Coordinated Universal Time)

1 37933U 11069A 26094.05451933 -.00000335 00000+0 00000+0 0 9993 2 37933 0.0181 186.3144 0001782 188.4836 302.6876 1.00274928 44115
UTC large
Height (km)
Speed (km/s)
/
Latitude / Longitude
Inclination (degrees)
Orbital Period (minutes)
Azimuth
Elevation
Range (km)
Doppler Factor

Next 0 passes for location: London (51.5072 / 0.1276)

Sorry there are no passes over London.